"startDT [UTC]","vpos","CH4 [ppm]","stdev(CH4) [ppm]","CO2 [ppm]","stdev(CO2) [ppm]","H2O [ppm]","stdev(H2O)","p_LGR [torr]","T_LGR [C]","mt1_LGR [us]","mt2_LGR [us]","T_ECpre [C]","T_EC1 [C]","T_EC2 [C]","p_inlet [hPa]","p_in [hPa]","p_out [hPa]","T_inlet [C]","RH_inlet [%]","dwpt_inlet [C]","T_vent [C]","RH_vent [%]","dwpt_vent [C]","flow_vent [l min-1]","flow_inlet [l min-1]","dwpt_sample [C]","T_room [C]"
2012-01-17 00:00:00,0.0,1.9341,0.0010,402.37,0.20,-1.0,0.0,138.22,24.10,24.57,36.23,0.04,-272.74,-272.74,-44,541,-942,17.4,1.0,-38.9,18.0,1.1,-38.1,5.73,2.51,-36.0,23.7
2012-01-17 00:01:00,0.0,1.9342,0.0011,402.27,0.20,-1.0,0.0,138.23,24.10,24.58,36.23,0.04,-272.73,-272.74,-44,540,-942,17.2,1.1,-39.0,17.8,1.1,-38.5,5.73,2.44,-36.1,23.6
2012-01-17 00:02:00,0.0,1.9345,0.0009,402.28,0.16,-1.0,0.0,138.22,24.09,24.57,36.23,0.04,-272.73,-272.73,-44,540,-942,17.1,1.1,-39.0,17.7,1.1,-38.7,5.73,2.56,-36.2,23.5
2012-01-17 00:03:00,0.0,1.9330,0.0009,402.33,0.17,-1.0,0.0,138.23,24.08,24.58,36.23,0.04,-272.74,-272.74,-44,540,-942,16.9,1.0,-39.3,17.6,1.1,-38.8,5.73,2.42,-36.3,23.5
2012-01-17 00:04:00,0.0,1.9318,0.0009,402.29,0.18,-1.0,0.0,138.23,24.07,24.58,36.22,0.04,-272.73,-272.73,-44,539,-942,16.7,1.0,-39.5,17.4,1.0,-39.1,5.73,2.57,-36.3,23.4
2012-01-17 00:05:00,0.0,1.9327,0.0011,402.25,0.21,-1.0,0.0,138.23,24.06,24.58,36.23,0.04,-272.73,-272.73,-44,539,-942,16.5,1.0,-39.6,17.3,1.0,-39.1,5.73,2.43,-36.4,23.2
2012-01-17 00:06:00,0.0,1.9338,0.0014,402.30,0.21,-1.0,0.0,138.23,24.05,24.57,36.23,0.04,-272.73,-272.73,-44,538,-942,16.3,1.0,-39.7,17.1,1.1,-39.0,5.73,2.55,-36.5,23.2
2012-01-17 00:07:00,0.0,1.9330,0.0009,402.26,0.18,-1.0,0.0,138.23,24.04,24.57,36.22,0.04,-272.73,-272.74,-44,538,-942,16.2,1.0,-39.8,17.0,1.1,-39.0,5.73,2.48,-36.6,23.1
2012-01-17 00:08:00,0.0,1.9336,0.0009,402.19,0.20,-1.0,0.0,138.23,24.03,24.57,36.23,0.04,-272.74,-272.74,-43,538,-942,16.0,1.1,-39.6,16.9,1.1,-39.0,5.73,2.50,-36.7,23.0
2012-01-17 00:09:00,0.0,1.9332,0.0011,402.32,0.22,-1.0,0.0,138.23,24.01,24.57,36.22,0.04,-272.73,-272.73,-43,538,-942,15.8,1.1,-39.6,16.7,1.1,-39.0,5.73,2.55,-36.8,22.8
2012-01-17 00:10:00,0.0,1.9315,0.0008,402.12,0.23,-1.0,0.0,138.24,24.00,24.58,36.23,0.04,-272.73,-272.73,-43,537,-942,15.7,1.1,-39.4,16.6,1.1,-38.7,5.73,2.45,-36.9,22.8
2012-01-17 00:11:00,0.0,1.9319,0.0008,402.13,0.18,-1.0,0.0,138.23,23.99,24.57,36.23,0.04,-272.73,-272.73,-43,537,-941,15.7,1.1,-39.3,16.5,1.1,-38.7,5.73,2.58,-36.9,22.7
2012-01-17 00:12:00,0.0,1.9320,0.0007,402.13,0.17,-1.0,0.0,138.24,23.98,24.57,36.23,0.04,-272.73,-272.74,-43,537,-941,15.6,1.1,-39.3,16.5,1.1,-38.6,5.73,2.48,-37.0,22.6
2012-01-17 00:13:00,0.0,1.9313,0.0007,402.07,0.19,-1.0,0.0,138.24,23.97,24.58,36.23,0.04,-272.73,-272.74,-43,537,-941,15.6,1.1,-39.4,16.4,1.2,-38.6,5.73,2.48,-37.0,22.7
2012-01-17 00:14:00,0.0,1.9312,0.0010,402.12,0.16,-1.0,0.0,138.24,23.95,24.57,36.23,0.04,-272.74,-272.74,-43,537,-941,15.5,1.1,-39.3,16.4,1.1,-38.7,5.73,2.58,-37.1,22.7
2012-01-17 00:15:00,0.0,1.9312,0.0008,402.13,0.20,-1.0,0.0,138.23,23.94,24.58,36.22,0.04,-272.73,-272.74,-43,536,-941,15.5,1.1,-39.2,16.3,1.1,-38.7,5.73,2.50,-37.1,22.6
2012-01-17 00:16:00,0.0,1.9310,0.0010,402.02,0.17,-1.0,0.0,138.24,23.93,24.58,36.24,0.04,-272.73,-272.73,-43,537,-941,15.5,1.1,-39.2,16.3,1.1,-38.7,5.73,2.46,-37.2,22.5
2012-01-17 00:17:00,0.0,1.9319,0.0009,402.12,0.20,-1.0,0.0,138.23,23.92,24.57,36.23,0.04,-272.74,-272.73,-43,536,-941,15.5,1.1,-39.4,16.3,1.2,-38.7,5.73,2.55,-37.1,22.5
2012-01-17 00:18:00,0.0,1.9310,0.0009,402.10,0.17,-1.0,0.0,138.24,23.91,24.57,36.23,0.04,-272.74,-272.73,-43,536,-941,15.5,1.1,-39.4,16.2,1.1,-38.8,5.73,2.55,-37.2,22.4
2012-01-17 00:19:00,0.0,1.9309,0.0008,402.13,0.17,-1.0,0.0,138.23,23.90,24.57,36.23,0.04,-272.73,-272.73,-43,536,-940,15.5,1.1,-39.6,16.2,1.1,-39.0,5.73,2.47,-37.2,22.4
2012-01-17 00:20:00,0.0,1.9316,0.0011,402.05,0.16,-1.0,0.0,138.24,23.90,24.57,36.23,0.04,-272.73,-272.73,-43,536,-940,15.5,1.1,-39.8,16.2,1.1,-39.2,5.73,2.48,-37.2,22.4
2012-01-17 00:21:00,0.0,1.9304,0.0007,402.11,0.16,-1.0,0.0,138.23,23.89,24.58,36.22,0.04,-272.73,-272.73,-43,536,-940,15.5,1.1,-39.8,16.2,1.1,-39.2,5.73,2.55,-37.2,22.4
2012-01-17 00:22:00,0.0,1.9311,0.0010,402.06,0.20,-1.0,0.0,138.23,23.88,24.57,36.23,0.04,-272.73,-272.73,-43,536,-940,15.5,1.1,-39.8,16.2,1.1,-39.2,5.73,2.54,-37.1,22.4
2012-01-17 00:23:00,0.0,1.9311,0.0010,402.12,0.22,-1.0,0.0,138.23,23.88,24.57,36.23,0.04,-272.73,-272.73,-43,536,-940,15.6,1.1,-39.8,16.2,1.1,-39.2,5.73,2.48,-37.1,22.3
2012-01-17 00:24:00,0.0,1.9312,0.0009,402.10,0.21,-1.0,0.0,138.23,23.87,24.57,36.23,0.04,-272.74,-272.73,-43,536,-940,15.6,1.1,-39.8,16.2,1.1,-39.2,5.73,2.46,-37.1,22.3
2012-01-17 00:25:00,0.0,1.9301,0.0009,402.12,0.24,-1.0,0.0,138.23,23.86,24.58,36.23,0.04,-272.73,-272.73,-43,536,-940,15.6,1.1,-39.6,16.2,1.1,-39.0,5.73,2.53,-37.1,22.3
2012-01-17 00:26:00,0.0,1.9312,0.0010,402.22,0.20,-1.0,0.0,138.23,23.86,24.57,36.22,0.04,-272.73,-272.74,-42,536,-940,15.7,1.1,-39.4,16.2,1.1,-38.8,5.73,2.55,-37.1,22.3
2012-01-17 00:27:00,0.0,1.9320,0.0010,402.14,0.18,-1.0,0.0,138.23,23.86,24.58,36.24,0.04,-272.73,-272.73,-43,536,-940,15.7,1.1,-39.2,16.2,1.2,-38.7,5.73,2.50,-37.1,22.3
2012-01-17 00:28:00,0.0,1.9314,0.0009,402.22,0.20,-1.0,0.0,138.23,23.85,24.57,36.23,0.04,-272.73,-272.74,-43,535,-940,15.7,1.1,-39.1,16.2,1.2,-38.5,5.73,2.46,-37.0,22.2
2012-01-17 00:29:00,0.0,1.9307,0.0010,402.14,0.18,-1.0,0.0,138.23,23.85,24.58,36.24,0.04,-272.73,-272.73,-42,535,-940,15.8,1.2,-39.0,16.3,1.2,-38.5,5.73,2.49,-37.0,22.2
2012-01-17 00:30:00,0.0,1.9303,0.0010,402.18,0.17,-1.0,0.0,138.23,23.85,24.58,36.24,0.04,-272.73,-272.74,-42,536,-940,15.8,1.2,-38.9,16.3,1.2,-38.2,5.73,2.54,-37.0,22.2
2012-01-17 00:31:00,0.0,1.9303,0.0009,402.16,0.19,-1.0,0.0,138.23,23.84,24.57,36.24,0.04,-272.74,-272.74,-43,536,-940,15.8,1.2,-38.7,16.3,1.2,-38.2,5.73,2.54,-37.0,22.2
2012-01-17 00:32:00,0.0,1.9303,0.0009,402.10,0.15,-1.0,0.0,138.23,23.84,24.57,36.24,0.04,-272.73,-272.73,-43,535,-940,15.9,1.2,-38.7,16.3,1.2,-38.0,5.73,2.49,-36.9,22.2
2012-01-17 00:33:00,0.0,1.9307,0.0010,402.19,0.18,-1.0,0.0,138.23,23.84,24.57,36.23,0.04,-272.73,-272.73,-42,536,-940,15.9,1.2,-38.6,16.3,1.2,-38.0,5.73,2.46,-36.9,22.3
2012-01-17 00:34:00,0.0,1.9312,0.0009,402.25,0.15,-1.0,0.0,138.23,23.84,24.58,36.24,0.04,-272.73,-272.73,-42,536,-940,16.0,1.2,-38.5,16.3,1.2,-37.9,5.73,2.50,-36.9,22.2
2012-01-17 00:35:00,0.0,1.9315,0.0008,402.26,0.17,-1.0,0.0,138.23,23.84,24.57,36.24,0.04,-272.73,-272.73,-43,536,-940,16.0,1.2,-38.4,16.3,1.2,-38.0,5.73,2.54,-36.9,22.3
2012-01-17 00:36:00,0.0,1.9310,0.0010,402.32,0.21,-1.0,0.0,138.23,23.83,24.57,36.23,0.04,-272.73,-272.73,-42,536,-940,16.0,1.2,-38.4,16.4,1.2,-37.9,5.73,2.54,-36.9,22.3
2012-01-17 00:37:00,0.0,1.9310,0.0010,402.22,0.18,-1.0,0.0,138.23,23.83,24.57,36.24,0.04,-272.73,-272.73,-42,536,-940,16.0,1.2,-38.3,16.4,1.3,-37.7,5.73,2.48,-36.9,22.3
2012-01-17 00:38:00,0.0,1.9307,0.0009,402.35,0.20,-1.0,0.0,138.23,23.83,24.57,36.23,0.04,-272.73,-272.73,-43,536,-940,16.1,1.2,-38.4,16.4,1.2,-37.9,5.73,2.46,-36.8,22.3
2012-01-17 00:39:00,0.0,1.9306,0.0008,402.27,0.20,-1.0,0.0,138.23,23.83,24.58,36.24,0.04,-272.73,-272.73,-43,536,-940,16.1,1.2,-38.7,16.5,1.2,-38.0,5.73,2.49,-36.8,22.3
2012-01-17 00:40:00,0.0,1.9307,0.0008,402.28,0.16,-1.0,0.0,138.23,23.83,24.57,36.24,0.04,-272.73,-272.73,-43,536,-940,16.2,1.1,-38.8,16.5,1.2,-38.3,5.73,2.53,-36.8,22.3
2012-01-17 00:41:00,0.0,1.9308,0.0008,402.21,0.17,-1.0,0.0,138.23,23.82,24.58,36.24,0.04,-272.73,-272.73,-42,536,-940,16.2,1.1,-39.1,16.5,1.2,-38.5,5.73,2.53,-36.8,22.3
2012-01-17 00:42:00,0.0,1.9308,0.0008,402.29,0.19,-1.0,0.0,138.23,23.82,24.57,36.24,0.04,-272.73,-272.73,-43,536,-940,16.2,1.1,-39.4,16.5,1.1,-38.7,5.73,2.49,-36.7,22.3
2012-01-17 00:43:00,0.0,1.9312,0.0010,402.28,0.19,-1.0,0.0,138.23,23.82,24.58,36.24,0.04,-272.73,-272.73,-43,536,-940,16.3,1.1,-39.5,16.5,1.1,-38.9,5.73,2.45,-36.7,22.3
2012-01-17 00:44:00,0.0,1.9317,0.0008,402.26,0.16,-1.0,0.0,138.23,23.82,24.57,36.24,0.04,-272.73,-272.73,-43,536,-940,16.3,1.0,-39.6,16.5,1.1,-39.0,5.73,2.49,-36.7,22.4
2012-01-17 00:45:00,0.0,1.9319,0.0008,402.35,0.19,-1.0,0.0,138.23,23.82,24.57,36.23,0.04,-272.73,-272.73,-42,536,-940,16.3,1.0,-39.6,16.5,1.1,-39.0,5.73,2.53,-36.7,22.4
2012-01-17 00:46:00,0.0,1.9316,0.0008,402.31,0.18,-1.0,0.0,138.22,23.82,24.58,36.23,0.04,-272.73,-272.73,-43,536,-940,16.4,1.0,-39.6,16.6,1.1,-39.0,5.73,2.53,-36.6,22.4
2012-01-17 00:47:00,0.0,1.9316,0.0007,402.29,0.20,-1.0,0.0,138.23,23.81,24.57,36.24,0.04,-272.73,-272.73,-43,536,-940,16.4,1.1,-39.3,16.6,1.1,-38.8,5.73,2.49,-36.6,22.4
2012-01-17 00:48:00,0.0,1.9319,0.0008,402.39,0.17,-1.0,0.0,138.22,23.81,24.58,36.23,0.04,-272.74,-272.73,-43,536,-940,16.4,1.1,-39.3,16.6,1.1,-38.7,5.73,2.46,-36.6,22.5
2012-01-17 00:49:00,0.0,1.9326,0.0009,402.33,0.21,-1.0,0.0,138.23,23.82,24.58,36.23,0.04,-272.73,-272.73,-42,537,-940,16.5,1.1,-39.2,16.7,1.1,-38.7,5.73,2.48,-36.6,22.5
2012-01-17 00:50:00,0.0,1.9327,0.0008,402.35,0.17,-1.0,0.0,138.22,23.82,24.57,36.24,0.04,-272.73,-272.73,-43,537,-940,16.5,1.1,-39.3,16.7,1.1,-38.5,5.73,2.51,-36.5,22.5
2012-01-17 00:51:00,0.0,1.9336,0.0009,402.33,0.19,-1.0,0.0,138.22,23.82,24.57,36.24,0.04,-272.73,-272.73,-43,537,-940,16.5,1.1,-39.2,16.7,1.2,-38.4,5.73,2.53,-36.5,22.5
2012-01-17 00:52:00,0.0,1.9331,0.0008,402.32,0.19,-1.0,0.0,138.22,23.82,24.58,36.23,0.04,-272.73,-272.73,-43,537,-940,16.6,1.1,-39.1,16.7,1.1,-38.4,5.73,2.50,-36.4,22.6
2012-01-17 00:53:00,0.0,1.9329,0.0009,402.18,0.18,-1.0,0.0,138.22,23.82,24.58,36.24,0.04,-272.73,-272.73,-42,537,-940,16.6,1.1,-38.9,16.8,1.1,-38.4,5.73,2.47,-36.4,22.6
2012-01-17 00:54:00,0.0,1.9326,0.0009,402.23,0.20,-1.0,0.0,138.22,23.83,24.58,36.24,0.04,-272.73,-272.73,-43,537,-940,16.7,1.1,-38.9,16.8,1.2,-38.4,5.73,2.46,-36.4,22.6
2012-01-17 00:55:00,0.0,1.9328,0.0010,402.34,0.19,-1.0,0.0,138.22,23.82,24.57,36.23,0.04,-272.73,-272.73,-43,537,-940,16.7,1.1,-38.9,16.8,1.1,-38.4,5.73,2.49,-36.3,22.7
2012-01-17 00:56:00,0.0,1.9330,0.0009,402.25,0.18,-1.0,0.0,138.22,23.83,24.57,36.24,0.04,-272.73,-272.73,-43,537,-940,16.8,1.1,-38.8,16.9,1.2,-38.3,5.73,2.53,-36.2,22.7
2012-01-17 00:57:00,0.0,1.9329,0.0009,402.34,0.14,-1.0,0.0,138.22,23.83,24.57,36.24,0.04,-272.73,-272.73,-43,538,-940,16.8,1.1,-38.6,16.9,1.2,-38.1,5.73,2.53,-36.1,22.7
2012-01-17 00:58:00,0.0,1.9332,0.0008,402.34,0.16,-1.0,0.0,138.22,23.83,24.57,36.24,0.04,-272.73,-272.73,-43,538,-940,16.8,1.1,-38.9,16.9,1.2,-38.2,5.73,2.49,-36.1,22.7
2012-01-17 00:59:00,0.0,1.9330,0.0009,402.29,0.19,-1.0,0.0,138.22,23.83,24.57,36.24,0.04,-272.73,-272.74,-43,538,-940,16.9,1.1,-38.8,16.9,1.1,-38.3,5.73,2.45,-36.1,22.8
2012-01-17 01:00:00,0.0,1.9332,0.0010,402.39,0.18,-1.0,0.0,138.22,23.83,24.57,36.24,0.04,-272.73,-272.73,-43,538,-940,16.9,1.1,-38.8,17.0,1.2,-38.3,5.73,2.46,-36.1,22.8
2012-01-17 01:01:00,0.0,1.9329,0.0009,402.34,0.19,-1.0,0.0,138.22,23.83,24.58,36.24,0.04,-272.74,-272.73,-43,538,-940,16.9,1.1,-38.8,17.0,1.2,-38.2,5.73,2.50,-36.1,22.8
2012-01-17 01:02:00,0.0,1.9330,0.0008,402.22,0.25,-1.0,0.0,138.22,23.83,24.57,36.25,0.04,-272.73,-272.73,-43,538,-940,17.0,1.1,-39.0,17.0,1.1,-38.2,5.73,2.53,-36.0,22.8
2012-01-17 01:03:00,0.0,1.9330,0.0010,402.34,0.19,-1.0,0.0,138.22,23.83,24.57,36.24,0.04,-272.73,-272.73,-43,538,-940,17.0,1.1,-39.0,17.1,1.1,-38.2,5.73,2.51,-36.0,22.9
2012-01-17 01:04:00,0.0,1.9329,0.0010,402.30,0.20,-1.0,0.0,138.22,23.83,24.58,36.24,0.04,-272.73,-272.73,-43,538,-940,17.0,1.1,-38.9,17.1,1.1,-38.2,5.73,2.47,-36.0,22.9
2012-01-17 01:05:00,0.0,1.9331,0.0007,402.26,0.20,-1.0,0.0,138.22,23.84,24.57,36.24,0.04,-272.73,-272.73,-43,539,-940,17.1,1.1,-38.9,17.1,1.2,-38.2,5.73,2.45,-36.0,22.9
2012-01-17 01:06:00,0.0,1.9331,0.0008,402.36,0.22,-1.0,0.0,138.22,23.84,24.57,36.23,0.04,-272.73,-272.73,-43,539,-940,17.0,1.1,-39.0,17.1,1.2,-38.2,5.73,2.49,-36.0,22.8
2012-01-17 01:07:00,0.0,1.9328,0.0008,402.38,0.17,-1.0,0.0,138.22,23.84,24.58,36.23,0.04,-272.73,-272.73,-43,539,-941,17.0,1.1,-38.7,17.1,1.2,-38.2,5.73,2.54,-36.1,22.7
2012-01-17 01:08:00,0.0,1.9329,0.0008,402.37,0.24,-1.0,0.0,138.22,23.84,24.57,36.24,0.04,-272.73,-272.73,-43,539,-940,16.9,1.1,-38.7,17.0,1.2,-38.2,5.73,2.48,-36.1,22.7
2012-01-17 01:09:00,0.0,1.9327,0.0008,402.38,0.17,-1.0,0.0,138.22,23.84,24.57,36.23,0.04,-272.73,-272.73,-43,539,-940,16.8,1.1,-38.6,17.0,1.2,-38.1,5.73,2.44,-36.2,22.6
2012-01-17 01:10:00,0.0,1.9334,0.0008,403.59,0.84,-1.0,0.0,138.22,23.84,24.57,36.24,0.04,-272.73,-272.73,-43,539,-941,16.7,1.1,-38.6,16.9,1.2,-38.1,5.73,2.55,-36.2,22.6
2012-01-17 01:11:00,0.0,1.9328,0.0007,402.53,0.37,-1.0,0.0,138.22,23.84,24.57,36.24,0.04,-272.73,-272.74,-43,538,-941,16.5,1.1,-38.8,16.8,1.2,-38.2,5.73,2.49,-36.3,22.6
2012-01-17 01:12:00,0.0,1.9321,0.0010,402.25,0.18,-1.0,0.0,138.22,23.83,24.58,36.24,0.04,-272.73,-272.74,-43,538,-941,16.4,1.2,-38.6,16.7,1.2,-38.0,5.73,2.45,-36.4,22.6
2012-01-17 01:13:00,0.0,1.9320,0.0008,402.36,0.19,-1.0,0.0,138.23,23.83,24.58,36.24,0.04,-272.73,-272.73,-43,538,-941,16.2,1.2,-38.7,16.6,1.2,-38.1,5.73,2.57,-36.5,22.6
2012-01-17 01:14:00,0.0,1.9319,0.0008,402.39,0.19,-1.0,0.0,138.23,23.82,24.57,36.23,0.04,-272.73,-272.73,-43,537,-941,16.1,1.2,-38.7,16.5,1.2,-37.9,5.73,2.48,-36.6,22.5
2012-01-17 01:15:00,0.0,1.9316,0.0009,402.42,0.27,-1.0,0.0,138.23,23.81,24.57,36.23,0.04,-272.73,-272.73,-43,537,-941,15.9,1.2,-38.7,16.4,1.2,-38.0,5.73,2.49,-36.7,22.4
2012-01-17 01:16:00,0.0,1.9314,0.0007,402.27,0.19,-1.0,0.0,138.23,23.80,24.58,36.24,0.04,-272.73,-272.73,-43,537,-941,15.8,1.2,-38.7,16.3,1.2,-38.0,5.73,2.58,-36.8,22.4
2012-01-17 01:17:00,0.0,1.9313,0.0008,402.29,0.17,-1.0,0.0,138.23,23.79,24.57,36.23,0.04,-272.73,-272.73,-43,536,-941,15.8,1.2,-38.6,16.2,1.2,-38.0,5.73,2.47,-36.8,22.3
2012-01-17 01:18:00,0.0,1.9307,0.0010,402.23,0.23,-1.0,0.0,138.23,23.78,24.58,36.24,0.04,-272.73,-272.74,-43,536,-940,15.7,1.2,-38.5,16.2,1.2,-38.0,5.73,2.49,-36.8,22.4
2012-01-17 01:19:00,0.0,1.9312,0.0009,402.22,0.18,-1.0,0.0,138.23,23.77,24.57,36.24,0.04,-272.73,-272.73,-43,536,-940,15.7,1.2,-38.6,16.2,1.3,-37.9,5.73,2.57,-36.9,22.3
2012-01-17 01:20:00,0.0,1.9310,0.0008,402.15,0.18,-1.0,0.0,138.23,23.76,24.57,36.24,0.04,-272.73,-272.73,-43,536,-940,15.7,1.2,-38.5,16.1,1.3,-37.9,5.73,2.53,-36.9,22.3
2012-01-17 01:21:00,0.0,1.9306,0.0009,402.21,0.18,-1.0,0.0,138.23,23.75,24.58,36.23,0.04,-272.73,-272.74,-43,535,-940,15.7,1.2,-38.6,16.1,1.3,-37.9,5.73,2.47,-36.9,22.3
2012-01-17 01:22:00,0.0,1.9311,0.0010,402.21,0.17,-1.0,0.0,138.23,23.74,24.58,36.23,0.04,-272.73,-272.74,-43,535,-940,15.7,1.2,-38.6,16.1,1.3,-37.9,5.73,2.49,-36.9,22.3
2012-01-17 01:23:00,0.0,1.9314,0.0008,402.18,0.16,-1.0,0.0,138.23,23.74,24.58,36.23,0.04,-272.73,-272.73,-43,535,-940,15.7,1.2,-38.6,16.1,1.3,-38.0,5.73,2.54,-36.9,22.2
2012-01-17 01:24:00,0.0,1.9314,0.0008,402.21,0.17,-1.0,0.0,138.23,23.73,24.58,36.23,0.04,-272.73,-272.73,-43,535,-940,15.7,1.2,-38.6,16.1,1.3,-37.9,5.73,2.55,-37.0,22.2
2012-01-17 01:25:00,0.0,1.9316,0.0008,402.15,0.18,-1.0,0.0,138.23,23.73,24.57,36.23,0.04,-272.74,-272.73,-43,535,-940,15.7,1.2,-38.6,16.1,1.3,-37.9,5.73,2.52,-37.0,22.2
2012-01-17 01:26:00,0.0,1.9311,0.0010,402.13,0.21,-1.0,0.0,138.23,23.72,24.58,36.24,0.04,-272.73,-272.73,-43,535,-940,15.7,1.2,-38.6,16.0,1.3,-37.9,5.73,2.48,-37.0,22.0
2012-01-17 01:27:00,0.0,1.9310,0.0009,402.18,0.17,-1.0,0.0,138.24,23.71,24.57,36.24,0.04,-272.73,-272.73,-42,535,-940,15.7,1.2,-38.6,16.0,1.3,-37.9,5.73,2.48,-37.0,21.9
2012-01-17 01:28:00,0.0,1.9319,0.0010,402.18,0.17,-1.0,0.0,138.24,23.70,24.57,36.23,0.04,-272.73,-272.73,-43,535,-940,15.6,1.2,-38.6,16.0,1.3,-38.0,5.73,2.52,-37.1,21.9
2012-01-17 01:29:00,0.0,1.9322,0.0010,402.27,0.18,-1.0,0.0,138.25,23.68,24.57,36.23,0.04,-272.73,-272.73,-43,535,-940,15.6,1.2,-38.6,15.9,1.3,-38.0,5.73,2.55,-37.2,21.9
2012-01-17 01:30:00,0.0,1.9332,0.0009,402.22,0.18,-1.0,0.0,138.25,23.67,24.57,36.23,0.04,-272.73,-272.73,-42,534,-940,15.6,1.2,-38.6,15.9,1.2,-38.1,5.73,2.54,-37.2,21.9
2012-01-17 01:31:00,0.0,1.9344,0.0009,402.18,0.18,-1.0,0.0,138.25,23.65,24.57,36.24,0.04,-272.74,-272.73,-42,535,-940,15.6,1.2,-38.8,15.9,1.2,-38.2,5.73,2.52,-37.1,21.9
2012-01-17 01:32:00,0.0,1.9346,0.0009,402.22,0.18,-1.0,0.0,138.24,23.65,24.58,36.24,0.04,-272.74,-272.73,-42,534,-939,15.7,1.2,-38.8,15.9,1.2,-38.2,5.73,2.49,-37.1,21.9
2012-01-17 01:33:00,0.0,1.9348,0.0009,402.16,0.19,-1.0,0.0,138.25,23.63,24.58,36.24,0.04,-272.73,-272.73,-43,534,-939,15.7,1.2,-39.0,15.9,1.2,-38.4,5.73,2.49,-37.1,21.9
2012-01-17 01:34:00,0.0,1.9348,0.0010,402.18,0.16,-1.0,0.0,138.24,23.63,24.57,36.24,0.04,-272.73,-272.73,-43,534,-939,15.7,1.1,-39.1,16.0,1.2,-38.6,5.73,2.50,-37.1,21.9
2012-01-17 01:35:00,0.0,1.9338,0.0008,402.05,0.21,-1.0,0.0,138.24,23.62,24.57,36.25,0.04,-272.73,-272.73,-42,534,-939,15.7,1.1,-39.2,16.0,1.2,-38.6,5.73,2.52,-37.0,21.9
2012-01-17 01:36:00,0.0,1.9333,0.0009,402.11,0.17,-1.0,0.0,138.24,23.61,24.57,36.24,0.04,-272.73,-272.73,-42,535,-939,15.8,1.1,-39.4,16.0,1.2,-38.8,5.73,2.54,-37.0,21.9
2012-01-17 01:37:00,0.0,1.9327,0.0009,402.08,0.18,-1.0,0.0,138.24,23.61,24.58,36.24,0.04,-272.73,-272.73,-42,535,-939,15.8,1.1,-39.6,16.0,1.1,-39.0,5.73,2.54,-36.9,21.9
2012-01-17 01:38:00,0.0,1.9320,0.0008,402.11,0.17,-1.0,0.0,138.24,23.60,24.58,36.25,0.04,-272.73,-272.74,-43,535,-939,15.8,1.1,-39.8,16.1,1.1,-39.3,5.73,2.52,-36.9,21.9
2012-01-17 01:39:00,0.0,1.9316,0.0009,402.14,0.19,-1.0,0.0,138.24,23.60,24.58,36.24,0.04,-272.73,-272.73,-43,535,-939,15.9,1.0,-39.9,16.1,1.1,-39.2,5.73,2.50,-36.9,21.9
2012-01-17 01:40:00,0.0,1.9323,0.0008,402.10,0.15,-1.0,0.0,138.24,23.60,24.58,36.24,0.04,-272.73,-272.73,-43,535,-939,15.9,1.0,-39.8,16.1,1.1,-39.4,5.73,2.50,-36.8,22.0
2012-01-17 01:41:00,0.0,1.9318,0.0010,402.06,0.16,-1.0,0.0,138.24,23.59,24.57,36.24,0.04,-272.73,-272.73,-42,535,-939,15.9,1.0,-40.1,16.1,1.1,-39.5,5.73,2.49,-36.8,22.0
2012-01-17 01:42:00,0.0,1.9312,0.0009,402.19,0.18,-1.0,0.0,138.24,23.59,24.58,36.24,0.04,-272.73,-272.73,-42,535,-939,16.0,1.0,-40.1,16.2,1.1,-39.5,5.73,2.49,-36.8,22.0
2012-01-17 01:43:00,0.0,1.9312,0.0010,402.13,0.21,-1.0,0.0,138.24,23.59,24.57,36.25,0.04,-272.73,-272.73,-42,535,-939,16.0,1.0,-39.8,16.2,1.1,-39.2,5.73,2.50,-36.7,22.0
2012-01-17 01:44:00,0.0,1.9303,0.0009,402.11,0.20,-1.0,0.0,138.23,23.59,24.58,36.25,0.04,-272.73,-272.73,-42,535,-939,16.0,1.0,-39.7,16.2,1.1,-39.2,5.73,2.51,-36.7,22.0
2012-01-17 01:45:00,0.0,1.9304,0.0011,402.11,0.18,-1.0,0.0,138.23,23.58,24.58,36.24,0.04,-272.73,-272.73,-43,535,-939,16.1,1.0,-39.7,16.3,1.1,-39.1,5.73,2.52,-36.6,22.1
2012-01-17 01:46:00,0.0,1.9310,0.0009,402.10,0.13,-1.0,0.0,138.23,23.59,24.57,36.25,0.04,-272.73,-272.73,-43,535,-939,16.1,1.0,-39.7,16.3,1.1,-39.1,5.73,2.52,-36.6,22.1
2012-01-17 01:47:00,0.0,1.9315,0.0008,402.23,0.19,-1.0,0.0,138.23,23.58,24.57,36.24,0.04,-272.73,-272.73,-42,535,-939,16.1,1.1,-39.6,16.3,1.1,-38.9,5.73,2.52,-36.6,22.1
2012-01-17 01:48:00,0.0,1.9308,0.0012,402.17,0.18,-1.0,0.0,138.23,23.58,24.58,36.25,0.04,-272.73,-272.74,-42,536,-939,16.2,1.1,-39.4,16.3,1.1,-38.9,5.73,2.50,-36.6,22.1
2012-01-17 01:49:00,0.0,1.9305,0.0008,402.20,0.20,-1.0,0.0,138.23,23.58,24.57,36.24,0.04,-272.73,-272.74,-42,536,-939,16.2,1.1,-39.4,16.4,1.1,-38.8,5.73,2.49,-36.5,22.1
2012-01-17 01:50:00,0.0,1.9309,0.0008,402.16,0.18,-1.0,0.0,138.23,23.58,24.57,36.25,0.04,-272.73,-272.73,-43,536,-939,16.3,1.1,-39.4,16.4,1.1,-38.9,5.73,2.49,-36.5,22.2
2012-01-17 01:51:00,0.0,1.9308,0.0007,402.15,0.18,-1.0,0.0,138.23,23.58,24.57,36.25,0.04,-272.73,-272.73,-43,536,-939,16.3,1.1,-39.3,16.4,1.1,-38.8,5.73,2.48,-36.5,22.2
2012-01-17 01:52:00,0.0,1.9312,0.0007,402.19,0.23,-1.0,0.0,138.23,23.59,24.57,36.25,0.04,-272.73,-272.73,-43,536,-939,16.3,1.1,-39.3,16.5,1.2,-38.6,5.73,2.48,-36.4,22.2
2012-01-17 01:53:00,0.0,1.9313,0.0009,402.23,0.20,-1.0,0.0,138.23,23.59,24.57,36.24,0.04,-272.73,-272.73,-43,536,-939,16.4,1.1,-39.3,16.5,1.2,-38.6,5.73,2.49,-36.4,22.2
2012-01-17 01:54:00,0.0,1.9319,0.0008,402.23,0.17,-1.0,0.0,138.23,23.59,24.58,36.25,0.04,-272.73,-272.73,-43,536,-939,16.4,1.1,-39.2,16.5,1.2,-38.5,5.73,2.49,-36.4,22.2
2012-01-17 01:55:00,0.0,1.9325,0.0009,402.28,0.17,-1.0,0.0,138.23,23.59,24.58,36.24,0.04,-272.73,-272.74,-42,536,-939,16.5,1.1,-39.2,16.5,1.2,-38.6,5.73,2.51,-36.3,22.1
2012-01-17 01:56:00,0.0,1.9316,0.0008,402.29,0.22,-1.0,0.0,138.24,23.59,24.58,36.24,0.04,-272.73,-272.73,-43,536,-939,16.4,1.1,-39.3,16.5,1.1,-38.7,5.73,2.52,-36.3,22.1
2012-01-17 01:57:00,0.0,1.9307,0.0009,402.23,0.20,-1.0,0.0,138.23,23.58,24.58,36.24,0.04,-272.73,-272.73,-43,536,-939,16.5,1.1,-39.3,16.5,1.1,-38.8,5.73,2.51,-36.3,22.2
2012-01-17 01:58:00,0.0,1.9310,0.0009,402.32,0.23,-1.0,0.0,138.24,23.58,24.58,36.24,0.04,-272.73,-272.73,-43,536,-939,16.5,1.0,-39.5,16.5,1.1,-39.0,5.73,2.51,-36.3,22.2
2012-01-17 01:59:00,0.0,1.9311,0.0009,402.23,0.19,-1.0,0.0,138.23,23.58,24.57,36.25,0.04,-272.73,-272.73,-43,536,-939,16.5,1.0,-39.7,16.5,1.1,-39.1,5.73,2.49,-36.2,22.3
2012-01-17 02:00:00,0.0,1.9312,0.0010,402.18,0.18,-1.0,0.0,138.23,23.58,24.57,36.25,0.04,-272.73,-272.73,-43,536,-939,16.5,1.0,-39.8,16.6,1.1,-39.2,5.73,2.48,-36.2,22.3
2012-01-17 02:01:00,0.0,1.9309,0.0008,402.30,0.21,-1.0,0.0,138.23,23.58,24.57,36.24,0.04,-272.73,-272.73,-43,537,-939,16.6,1.0,-40.0,16.6,1.0,-39.4,5.73,2.48,-36.1,22.4
2012-01-17 02:02:00,0.0,1.9310,0.0009,402.27,0.19,-1.0,0.0,138.23,23.58,24.58,36.24,0.04,-272.73,-272.73,-43,537,-939,16.6,1.0,-40.1,16.7,1.0,-39.4,5.73,2.47,-36.1,22.4
2012-01-17 02:03:00,0.0,1.9311,0.0009,402.26,0.20,-1.0,0.0,138.23,23.58,24.57,36.24,0.04,-272.73,-272.73,-43,537,-939,16.7,1.0,-40.2,16.7,1.0,-39.4,5.73,2.48,-36.1,22.5
2012-01-17 02:04:00,0.0,1.9313,0.0008,402.28,0.19,-1.0,0.0,138.23,23.58,24.57,36.25,0.04,-272.73,-272.73,-43,537,-939,16.7,1.0,-39.9,16.7,1.0,-39.4,5.73,2.48,-36.1,22.5
2012-01-17 02:05:00,0.0,1.9314,0.0008,402.29,0.17,-1.0,0.0,138.23,23.59,24.58,36.24,0.04,-272.73,-272.74,-43,537,-939,16.7,1.0,-39.9,16.7,1.0,-39.4,5.73,2.49,-36.0,22.5
2012-01-17 02:06:00,0.0,1.9318,0.0009,402.29,0.17,-1.0,0.0,138.23,23.59,24.57,36.25,0.04,-272.74,-272.73,-43,537,-939,16.7,1.0,-39.9,16.8,1.0,-39.4,5.73,2.51,-36.0,22.3
2012-01-17 02:07:00,0.0,1.9314,0.0008,402.27,0.16,-1.0,0.0,138.23,23.59,24.58,36.25,0.04,-272.73,-272.73,-43,538,-939,16.7,1.0,-39.9,16.7,1.1,-39.2,5.73,2.53,-36.2,22.2
2012-01-17 02:08:00,0.0,1.9317,0.0009,402.30,0.20,-1.0,0.0,138.23,23.59,24.57,36.24,0.04,-272.73,-272.73,-43,537,-939,16.7,1.0,-39.7,16.7,1.1,-39.2,5.73,2.51,-36.2,22.3
2012-01-17 02:09:00,0.0,1.9316,0.0008,402.33,0.17,-1.0,0.0,138.23,23.59,24.57,36.24,0.04,-272.73,-272.73,-43,537,-939,16.7,1.0,-39.7,16.7,1.1,-39.2,5.73,2.49,-36.3,22.2
2012-01-17 02:10:00,0.0,1.9315,0.0009,402.36,0.17,-1.0,0.0,138.24,23.58,24.58,36.24,0.04,-272.73,-272.73,-43,537,-939,16.6,1.0,-39.7,16.6,1.1,-39.2,5.73,2.47,-36.5,22.2
2012-01-17 02:11:00,0.0,1.9302,0.0009,402.30,0.18,-1.0,0.0,138.24,23.57,24.58,36.25,0.04,-272.73,-272.73,-43,537,-939,16.6,1.0,-39.6,16.5,1.1,-39.1,5.73,2.48,-36.5,22.2
2012-01-17 02:12:00,0.0,1.9317,0.0013,402.31,0.19,-1.0,0.0,138.24,23.56,24.58,36.24,0.04,-272.73,-272.73,-43,537,-939,16.5,1.0,-39.5,16.5,1.1,-39.0,5.73,2.52,-36.6,22.1
2012-01-17 02:13:00,0.0,1.9318,0.0009,402.39,0.18,-1.0,0.0,138.25,23.54,24.57,36.24,0.04,-272.74,-272.74,-44,537,-939,16.4,1.1,-39.5,16.3,1.1,-39.2,5.73,2.56,-36.9,21.9
2012-01-17 02:14:00,0.0,1.9298,0.0011,402.23,0.20,-1.0,0.0,138.25,23.52,24.58,36.25,0.04,-272.73,-272.73,-45,536,-939,16.2,1.0,-39.7,16.1,1.1,-39.1,5.73,2.48,-37.3,21.6
2012-01-17 02:15:00,0.0,1.9291,0.0010,402.35,0.19,-1.0,0.0,138.25,23.50,24.57,36.24,0.04,-272.73,-272.73,-44,535,-939,16.0,1.1,-39.5,15.9,1.1,-39.1,5.73,2.49,-37.7,21.4
2012-01-17 02:16:00,0.0,1.9279,0.0009,402.33,0.20,-1.0,0.0,138.26,23.47,24.58,36.24,0.04,-272.73,-272.73,-44,534,-940,15.8,1.1,-39.7,15.7,1.2,-39.0,5.73,2.59,-38.0,21.2
2012-01-17 02:17:00,0.0,1.9274,0.0010,402.26,0.17,-1.0,0.0,138.27,23.43,24.57,36.23,0.04,-272.73,-272.73,-44,534,-939,15.7,1.1,-39.7,15.6,1.2,-39.0,5.73,2.49,-38.2,21.0
2012-01-17 02:18:00,0.0,1.9272,0.0013,402.12,0.18,-1.0,0.0,138.27,23.39,24.57,36.24,0.04,-272.73,-272.73,-44,533,-938,15.5,1.1,-39.7,15.4,1.2,-38.9,5.73,2.51,-38.5,20.8